Indian River Millsboro DE USA current weather conditions

sailwx.info

Wind from 185 at 2 knots gusting 4

Air temperature 14.0° C
Dewpoint 1.1° C

Last reported at 2020-Feb-24 16:05 UTC.
Time now 2020-Feb-24 17:07 UTC

Location: N 38°38' W 075°19'.
View on Google Maps.

See reports from other nearby stations

  
Tides and Currents Weather Stations Pressure Air Temp Water Temp Dewpoint Dewpoint Depression Visibility Wind Speed Wind Dir Waves Ship Positions
date/time (UTC)wind fromknots sea level pressurealtimeterstation pressurevisibilityair tempwater tempwave heightnotes
2020-Feb-24 16:05 185 2 gusting 4 14.0
2020-Feb-24 16:00 161 2 gusting 4 13.7
2020-Feb-24 15:55 170 2 gusting 5 13.2
2020-Feb-24 15:50 136 2 gusting 5 13.2
2020-Feb-24 15:45 197 1 gusting 3 12.9
2020-Feb-24 15:40 237 2 gusting 3 12.8
2020-Feb-24 15:35 214 2 gusting 3 12.5
2020-Feb-24 15:30 222 1 gusting 3 12.4
2020-Feb-24 15:25 250 1 gusting 4 12.4
2020-Feb-24 15:20 237 2 gusting 4 12.3
2020-Feb-24 15:15 213 2 gusting 4 11.6
2020-Feb-24 15:10 244 2 gusting 4 11.6
2020-Feb-24 15:05 224 1 gusting 3 11.2
2020-Feb-24 15:00 211 1 gusting 3 10.8
2020-Feb-24 14:55 195 3 gusting 5 10.7
2020-Feb-24 14:50 202 2 gusting 5 10.6
2020-Feb-24 14:45 191 2 gusting 5 10.5
2020-Feb-24 14:40 198 2 gusting 4 10.2
2020-Feb-24 14:35 216 2 gusting 4 9.9
2020-Feb-24 14:30 209 2 gusting 4 9.8
2020-Feb-24 14:25 242 2 gusting 4 9.5
2020-Feb-24 14:20 255 2 gusting 4 9.4
2020-Feb-24 14:15 245 1 gusting 3 9.1
2020-Feb-24 14:10 230 1 gusting 3 8.9
2020-Feb-24 14:05 223 2 gusting 4 8.9
2020-Feb-24 14:00 212 2 gusting 4 8.9
2020-Feb-24 13:55 204 1 gusting 3 8.6
2020-Feb-24 13:50 211 2 gusting 3 8.2
2020-Feb-24 13:45 214 1 gusting 2 7.9
2020-Feb-24 13:40 198 2 gusting 4 7.7
2020-Feb-24 13:35 191 2 gusting 2 7.5
2020-Feb-24 13:30 197 2 gusting 3 7.1
2020-Feb-24 13:25 189 1 gusting 2 6.8
2020-Feb-24 13:20 179 1 gusting 2 6.5
2020-Feb-24 13:15 189 0 gusting 1 5.3
2020-Feb-24 13:10 325 0 gusting 1 4.3
2020-Feb-24 13:05 316 0 gusting 1 3.7
2020-Feb-24 13:00 318 0 gusting 0 3.1
2020-Feb-24 12:55 2.6
2020-Feb-24 12:50 156 0 gusting 0 2.4
2020-Feb-24 12:45 186 0 gusting 0 2.1
2020-Feb-24 12:40 171 0 gusting 1 1.2
2020-Feb-24 12:35 161 0 gusting 0 0.7
2020-Feb-24 12:30 0.6
2020-Feb-24 12:25 0.6
2020-Feb-24 12:20 0.4
2020-Feb-24 12:15 0.4
2020-Feb-24 12:10 0.5
2020-Feb-24 12:05 211 0 gusting 0 0.4
2020-Feb-24 12:00 0.5
2020-Feb-24 11:55 0.7
2020-Feb-24 11:50 084 0 gusting 0 0.8
2020-Feb-24 11:45 1.0
2020-Feb-24 11:40 1.3
2020-Feb-24 11:35 1.6
2020-Feb-24 11:30 055 0 gusting 0 1.8
2020-Feb-24 11:25 054 0 gusting 0 1.8
2020-Feb-24 11:20 055 0 gusting 1 2.0
2020-Feb-24 11:15 082 0 gusting 0 2.6
2020-Feb-24 11:10 106 0 gusting 1 2.7
2020-Feb-24 11:05 136 0 gusting 0 2.9
2020-Feb-24 11:00 114 0 gusting 0 3.0
2020-Feb-24 10:55 160 0 gusting 0 3.1
2020-Feb-24 10:50 117 0 gusting 0 3.3
2020-Feb-24 10:45 173 0 gusting 0 3.1
2020-Feb-24 10:40 167 0 gusting 0 3.0
2020-Feb-24 10:35 147 0 gusting 0 3.2
2020-Feb-24 10:30 066 0 gusting 0 3.0
2020-Feb-24 10:25 2.8
2020-Feb-24 10:20 140 0 gusting 0 3.0
2020-Feb-24 10:15 130 0 gusting 0 3.2
2020-Feb-24 10:10 089 0 gusting 0 3.3
2020-Feb-24 10:05 059 0 gusting 1 3.4
2020-Feb-24 10:00 080 0 gusting 1 3.6
2020-Feb-24 09:55 132 0 gusting 2 3.9
2020-Feb-24 09:50 156 0 gusting 1 4.2
2020-Feb-24 09:45 182 0 gusting 2 4.3
2020-Feb-24 09:40 195 0 gusting 1 4.6
2020-Feb-24 09:35 186 1 gusting 2 4.9
2020-Feb-24 09:30 186 1 gusting 2 5.0
2020-Feb-24 09:25 168 1 gusting 3 5.1
2020-Feb-24 09:20 168 2 gusting 3 5.2
2020-Feb-24 09:15 164 1 gusting 3 5.3
2020-Feb-24 09:10 187 1 gusting 2 5.4
2020-Feb-24 09:05 183 2 gusting 3 5.5
2020-Feb-24 09:00 185 2 gusting 3 5.2
2020-Feb-24 08:55 190 1 gusting 2 5.1
2020-Feb-24 08:50 213 1 gusting 3 5.3
2020-Feb-24 08:45 197 1 gusting 2 5.4
2020-Feb-24 08:40 206 1 gusting 2 5.4
2020-Feb-24 08:35 193 1 gusting 2 5.5
2020-Feb-24 08:30 211 1 gusting 3 5.5
2020-Feb-24 08:25 205 1 gusting 4 5.3
2020-Feb-24 08:20 215 1 gusting 5 4.7
2020-Feb-24 08:15 171 1 gusting 4 4.4
2020-Feb-24 08:10 134 0 gusting 1 4.2
2020-Feb-24 08:05 140 0 gusting 1 4.3
2020-Feb-24 08:00 091 0 gusting 1 4.3
2020-Feb-24 07:55 318 0 gusting 0 4.3
2020-Feb-24 07:50 313 0 gusting 1 4.4
2020-Feb-24 07:45 239 0 gusting 3 4.4
2020-Feb-24 07:40 222 0 gusting 1 4.2
2020-Feb-24 07:35 298 0 gusting 1 3.6
2020-Feb-24 07:30 322 0 gusting 1 3.6
2020-Feb-24 07:25 057 0 gusting 0 3.6
2020-Feb-24 07:20 111 0 gusting 2 3.5
2020-Feb-24 07:15 038 0 gusting 1 3.4
2020-Feb-24 07:10 040 0 gusting 1 3.3
2020-Feb-24 07:05 033 0 gusting 1 3.1
2020-Feb-24 07:00 017 0 gusting 1 2.9
2020-Feb-24 06:55 017 0 gusting 1 3.2
2020-Feb-24 06:50 041 0 gusting 1 3.3
2020-Feb-24 06:45 028 0 gusting 1 3.2
2020-Feb-24 06:40 004 0 gusting 0 3.1
2020-Feb-24 06:35 339 0 gusting 0 3.1
2020-Feb-24 06:30 296 0 gusting 0 3.0
2020-Feb-24 06:25 018 0 gusting 0 2.9
2020-Feb-24 06:20 049 0 gusting 1 2.8
2020-Feb-24 06:15 043 0 gusting 1 2.6
2020-Feb-24 06:10 047 0 gusting 1 2.8
2020-Feb-24 06:05 047 0 gusting 1 2.8
2020-Feb-24 06:00 047 0 gusting 1 2.5
2020-Feb-24 05:55 053 1 gusting 1 2.7
2020-Feb-24 05:50 055 1 gusting 1 2.7
2020-Feb-24 05:45 048 1 gusting 2 2.9
2020-Feb-24 05:40 048 0 gusting 1 3.0
2020-Feb-24 05:35 064 0 gusting 1 3.1
2020-Feb-24 05:30 056 0 gusting 1 3.4
2020-Feb-24 05:25 078 0 gusting 1 3.8
2020-Feb-24 05:20 108 0 gusting 2 4.3
2020-Feb-24 05:15 164 1 gusting 2 4.4
2020-Feb-24 05:10 154 1 gusting 3 4.1
2020-Feb-24 05:05 137 1 gusting 5 3.9
2020-Feb-24 05:00 149 1 gusting 2 3.8
2020-Feb-24 04:55 158 0 gusting 2 3.4
2020-Feb-24 04:50 093 0 gusting 1 3.4
2020-Feb-24 04:45 073 0 gusting 2 3.4
2020-Feb-24 04:40 052 0 gusting 1 3.4
2020-Feb-24 04:35 073 0 gusting 1 3.4
2020-Feb-24 04:30 050 0 gusting 1 3.4
2020-Feb-24 04:25 049 0 gusting 1 3.5
2020-Feb-24 04:20 080 0 gusting 1 3.6
2020-Feb-24 04:15 083 0 gusting 1 3.7
2020-Feb-24 04:10 090 0 gusting 1 4.0
2020-Feb-24 04:05 102 0 gusting 1 4.0
2020-Feb-24 04:00 101 0 gusting 2 3.9
2020-Feb-24 03:55 098 0 gusting 1 3.9
2020-Feb-24 03:50 062 0 gusting 1 3.9
2020-Feb-24 03:45 060 0 gusting 1 3.9
2020-Feb-24 03:40 110 0 gusting 2 3.9
2020-Feb-24 03:35 144 0 gusting 1 3.8
2020-Feb-24 03:30 110 0 gusting 1 3.8
2020-Feb-24 03:25 109 0 gusting 2 3.6
2020-Feb-24 03:20 091 0 gusting 1 3.7
2020-Feb-24 03:15 134 0 gusting 1 3.8
2020-Feb-24 03:10 150 0 gusting 1 4.2
2020-Feb-24 03:05 156 1 gusting 3 4.4
2020-Feb-24 03:00 169 1 gusting 2 4.2
2020-Feb-24 02:55 159 0 gusting 3 3.9
2020-Feb-24 02:50 145 1 gusting 2 4.1
2020-Feb-24 02:45 142 1 gusting 4 4.0
2020-Feb-24 02:40 151 0 gusting 1 3.9
2020-Feb-24 02:35 137 1 gusting 3 4.3
2020-Feb-24 02:30 160 1 gusting 3 4.4
2020-Feb-24 02:25 160 1 gusting 2 4.6
2020-Feb-24 02:20 154 1 gusting 3 4.5
2020-Feb-24 02:15 150 1 gusting 2 4.5
2020-Feb-24 02:10 151 2 gusting 3 4.6
2020-Feb-24 02:05 161 1 gusting 2 4.5
2020-Feb-24 02:00 160 1 gusting 3 4.5
2020-Feb-24 01:55 149 2 gusting 3 4.5
2020-Feb-24 01:50 145 2 gusting 3 4.4
2020-Feb-24 01:45 148 2 gusting 3 4.3
2020-Feb-24 01:40 147 2 gusting 4 4.2
2020-Feb-24 01:35 142 2 gusting 3 4.2
2020-Feb-24 01:30 145 1 gusting 3 3.7
2020-Feb-24 01:25 137 1 gusting 2 3.5
2020-Feb-24 01:20 133 1 gusting 3 3.8
2020-Feb-24 01:15 094 1 gusting 2 3.9
2020-Feb-24 01:10 126 1 gusting 4 4.2
2020-Feb-24 01:05 144 2 gusting 3 4.0
2020-Feb-24 01:00 131 1 gusting 2 3.7
2020-Feb-24 00:55 114 0 gusting 2 3.8
2020-Feb-24 00:50 095 0 gusting 1 3.9
2020-Feb-24 00:45 071 0 gusting 1 3.8
2020-Feb-24 00:40 094 0 gusting 1 3.7
2020-Feb-24 00:35 097 0 gusting 0 3.9
2020-Feb-24 00:30 077 0 gusting 1 3.8
2020-Feb-24 00:25 050 0 gusting 1 3.9
2020-Feb-24 00:20 051 1 gusting 1 4.3
2020-Feb-24 00:15 062 1 gusting 2 4.6
2020-Feb-24 00:10 099 0 gusting 2 4.8
2020-Feb-24 00:05 130 1 gusting 2 4.9
2020-Feb-24 00:00 128 1 gusting 3 5.2
2020-Feb-23 23:55 138 1 gusting 2 5.3
2020-Feb-23 23:50 115 0 gusting 1 5.4
2020-Feb-23 23:45 128 1 gusting 2 5.8
2020-Feb-23 23:40 137 1 gusting 3 5.8
2020-Feb-23 23:35 145 0 gusting 2 5.5
2020-Feb-23 23:30 5.7
2020-Feb-23 23:25 092 0 gusting 0 6.1
2020-Feb-23 23:20 074 0 gusting 1 6.3
2020-Feb-23 23:15 107 0 gusting 1 6.4
2020-Feb-23 23:10 135 0 gusting 2 6.7
2020-Feb-23 23:05 132 0 gusting 2 6.9
2020-Feb-23 23:00 127 0 gusting 2 7.2
2020-Feb-23 22:55 150 1 gusting 2 7.3
2020-Feb-23 22:50 133 0 gusting 2 7.6
2020-Feb-23 22:45 099 1 gusting 3 8.0
2020-Feb-23 22:40 120 0 gusting 1 8.3
2020-Feb-23 22:35 121 0 gusting 1 8.7
2020-Feb-23 22:30 116 0 gusting 2 8.9
2020-Feb-23 22:25 096 0 gusting 2 9.2
2020-Feb-23 22:20 116 1 gusting 3 9.6
2020-Feb-23 22:15 134 1 gusting 5 9.9
2020-Feb-23 22:10 118 2 gusting 4 10.2
2020-Feb-23 22:05 122 2 gusting 5 10.5
2020-Feb-23 22:00 141 2 gusting 4 10.8
2020-Feb-23 21:55 142 2 gusting 4 11.1
2020-Feb-23 21:50 151 4 gusting 6 11.5
2020-Feb-23 21:45 121 2 gusting 5 11.9
2020-Feb-23 21:40 141 3 gusting 6 12.1
2020-Feb-23 21:35 138 4 gusting 8 12.3
2020-Feb-23 21:30 151 4 gusting 7 12.5
2020-Feb-23 21:25 144 5 gusting 10 12.5
2020-Feb-23 21:20 156 6 gusting 9 12.7
2020-Feb-23 21:15 151 5 gusting 10 13.1
2020-Feb-23 21:10 142 3 gusting 6 13.2
2020-Feb-23 21:05 137 3 gusting 9 13.5
2020-Feb-23 21:00 147 4 gusting 8 13.6
2020-Feb-23 20:55 144 3 gusting 6 13.7
2020-Feb-23 20:50 135 3 gusting 6 13.9
2020-Feb-23 20:45 147 4 gusting 7 13.8
2020-Feb-23 20:40 149 4 gusting 8 13.9
2020-Feb-23 20:35 166 3 gusting 7 14.2
2020-Feb-23 20:30 102 2 gusting 7 13.7
2020-Feb-23 20:25 067 2 gusting 4 13.5
2020-Feb-23 20:20 040 4 gusting 7 12.9
2020-Feb-23 20:15 070 4 gusting 8 12.9
2020-Feb-23 20:10 082 4 gusting 8 12.9
2020-Feb-23 20:05 048 3 gusting 8 13.7
2020-Feb-23 20:00 149 2 gusting 6 13.9
2020-Feb-23 19:55 142 5 gusting 8 14.2
2020-Feb-23 19:50 145 3 gusting 6 14.1
2020-Feb-23 19:45 158 3 gusting 7 13.7
2020-Feb-23 19:40 189 4 gusting 7 13.9
2020-Feb-23 19:35 218 2 gusting 6 13.9
2020-Feb-23 19:30 133 3 gusting 6 13.6
2020-Feb-23 19:25 124 2 gusting 6 13.8
2020-Feb-23 19:20 140 4 gusting 6 14.1
2020-Feb-23 19:15 143 2 gusting 6 14.0
2020-Feb-23 19:10 092 2 gusting 5 14.0
2020-Feb-23 19:05 122 3 gusting 8 13.4
2020-Feb-23 19:00 066 2 gusting 5 13.3
2020-Feb-23 18:55 117 3 gusting 7 13.3
2020-Feb-23 18:50 105 2 gusting 7 13.4
2020-Feb-23 18:45 060 1 gusting 4 13.4
2020-Feb-23 18:40 106 2 gusting 6 13.3
2020-Feb-23 18:35 101 2 gusting 5 13.1
2020-Feb-23 18:30 124 3 gusting 6 13.1
2020-Feb-23 18:25 170 4 gusting 9 13.3
2020-Feb-23 18:20 157 4 gusting 8 13.0
2020-Feb-23 18:15 122 2 gusting 9 12.9
2020-Feb-23 18:10 165 4 gusting 7 12.7
2020-Feb-23 18:05 065 2 gusting 6 12.5
2020-Feb-23 18:00 083 3 gusting 6 12.8
2020-Feb-23 17:55 144 4 gusting 8 12.8
2020-Feb-23 17:50 141 4 gusting 8 13.1
2020-Feb-23 17:45 178 2 gusting 4 12.7
2020-Feb-23 17:40 152 4 gusting 6 13.0
2020-Feb-23 17:35 161 2 gusting 6 12.9
2020-Feb-23 17:30 058 1 gusting 4 12.4
2020-Feb-23 17:25 183 3 gusting 7 12.6
2020-Feb-23 17:20 173 1 gusting 6 12.9
2020-Feb-23 17:15 127 1 gusting 4 12.5
2020-Feb-23 17:10 103 2 gusting 5 12.1
2020-Feb-23 17:05 071 2 gusting 6 12.2
2020-Feb-23 17:00 151 2 gusting 6 12.1
2020-Feb-23 16:55 076 3 gusting 6 11.8
2020-Feb-23 16:50 312 1 gusting 6 11.7
2020-Feb-23 16:45 157 3 gusting 5 11.8
2020-Feb-23 16:40 151 4 gusting 6 11.9
2020-Feb-23 16:35 123 2 gusting 5 12.1
2020-Feb-23 16:30 134 2 gusting 5 11.9
2020-Feb-23 16:25 130 2 gusting 7 11.7
2020-Feb-23 16:20 137 2 gusting 8 11.5
2020-Feb-23 16:15 129 2 gusting 8 11.4
2020-Feb-23 16:10 121 2 gusting 6 11.2
2020-Feb-23 16:05 134 2 gusting 6 11.1
2020-Feb-23 16:00 044 2 gusting 4 10.9
2020-Feb-23 15:55 154 2 gusting 5 11.1
2020-Feb-23 15:50 090 2 gusting 4 10.7
2020-Feb-23 15:45 058 1 gusting 3 10.9
2020-Feb-23 15:40 095 1 gusting 4 10.7
2020-Feb-23 15:35 184 2 gusting 5 10.7
2020-Feb-23 15:30 142 2 gusting 4 10.3
2020-Feb-23 15:25 164 4 gusting 7 10.1
2020-Feb-23 15:20 179 2 gusting 4 9.9
2020-Feb-23 15:15 022 2 gusting 5 9.6
2020-Feb-23 15:10 073 2 gusting 4 9.8
2020-Feb-23 15:05 162 2 gusting 4 9.5
2020-Feb-23 15:00 151 2 gusting 5 9.4
2020-Feb-23 14:55 135 1 gusting 5 9.5
2020-Feb-23 14:50 171 1 gusting 3 8.9
2020-Feb-23 14:45 233 0 gusting 1 8.5
2020-Feb-23 14:40 167 0 gusting 1 8.4
2020-Feb-23 14:35 185 0 gusting 1 7.8
2020-Feb-23 14:30 324 0 gusting 1 7.0
2020-Feb-23 14:25 324 0 gusting 1 6.5
2020-Feb-23 14:20 296 0 gusting 1 5.9
2020-Feb-23 14:15 331 0 gusting 1 5.5
2020-Feb-23 14:10 312 0 gusting 1 4.9
2020-Feb-23 14:05 286 1 gusting 1 4.7
2020-Feb-23 14:00 020 0 gusting 0 4.5
2020-Feb-23 13:55 164 0 gusting 0 3.6
2020-Feb-23 13:50 084 0 gusting 1 3.2
2020-Feb-23 13:45 233 0 gusting 1 3.2
2020-Feb-23 13:40 161 0 gusting 1 3.1
2020-Feb-23 13:35 178 0 gusting 1 2.8
2020-Feb-23 13:30 1.9
2020-Feb-23 13:25 1.8
2020-Feb-23 13:20 1.5
2020-Feb-23 13:15 0.5
2020-Feb-23 13:10 -0.7
2020-Feb-23 13:05 -1.7
2020-Feb-23 13:00 -2.6
2020-Feb-23 12:55 -3.4
2020-Feb-23 12:50 -3.8
2020-Feb-23 12:45 -4.1
2020-Feb-23 12:40 -4.3
2020-Feb-23 12:35 -4.3
2020-Feb-23 12:30 -4.3
2020-Feb-23 12:25 023 0 gusting 0 -4.4
2020-Feb-23 12:20 -4.5
2020-Feb-23 12:15 -4.6
2020-Feb-23 12:10 -4.6
2020-Feb-23 12:05 -4.7
2020-Feb-23 12:00 -4.6
2020-Feb-23 11:55 024 0 gusting 0 -4.5
2020-Feb-23 11:50 022 0 gusting 1 -4.5
2020-Feb-23 11:45 019 0 gusting 0 -4.5
2020-Feb-23 11:40 -4.5
2020-Feb-23 11:35 018 0 gusting 0 -4.4
2020-Feb-23 11:30 018 0 gusting 0 -4.4
2020-Feb-23 11:25 009 0 gusting 1 -4.3
2020-Feb-23 11:20 001 0 gusting 1 -4.3
2020-Feb-23 11:15 353 0 gusting 1 -4.2
2020-Feb-23 11:10 340 0 gusting 0 -3.9
2020-Feb-23 11:05 -3.8
2020-Feb-23 11:00 277 0 gusting 0 -3.8
2020-Feb-23 10:55 264 0 gusting 0 -3.9
2020-Feb-23 10:50 263 0 gusting 0 -4.1
2020-Feb-23 10:45 260 0 gusting 0 -4.2
2020-Feb-23 10:40 226 0 gusting 0 -4.2
2020-Feb-23 10:35 -4.2
2020-Feb-23 10:30 -4.2
2020-Feb-23 10:25 199 0 gusting 0 -4.1
2020-Feb-23 10:20 208 0 gusting 0 -4.1
2020-Feb-23 10:15 220 0 gusting 1 -4.0
2020-Feb-23 10:10 227 0 gusting 1 -3.8
2020-Feb-23 10:05 229 0 gusting 0 -3.7
2020-Feb-23 10:00 227 0 gusting 0 -3.5
2020-Feb-23 09:55 220 0 gusting 0 -3.4
2020-Feb-23 09:50 201 0 gusting 0 -3.5
2020-Feb-23 09:45 208 0 gusting 0 -3.4
2020-Feb-23 09:40 -3.4
2020-Feb-23 09:35 -3.5
2020-Feb-23 09:30 225 0 gusting 0 -3.5
2020-Feb-23 09:25 -3.4
2020-Feb-23 09:20 -3.5
2020-Feb-23 09:15 299 0 gusting 0 -3.6
2020-Feb-23 09:10 287 0 gusting 0 -3.6
2020-Feb-23 09:05 289 0 gusting 0 -3.4
2020-Feb-23 09:00 -3.2
2020-Feb-23 08:55 215 0 gusting 0 -3.1
2020-Feb-23 08:50 180 0 gusting 0 -3.3
2020-Feb-23 08:45 181 0 gusting 0 -3.3
2020-Feb-23 08:40 202 0 gusting 0 -3.1
2020-Feb-23 08:35 268 0 gusting 0 -3.0
2020-Feb-23 08:30 226 0 gusting 0 -2.9
2020-Feb-23 08:25 194 0 gusting 0 -2.9
2020-Feb-23 08:20 171 0 gusting 1 -2.9
2020-Feb-23 08:15 149 0 gusting 1 -2.8
2020-Feb-23 08:10 -2.8
2020-Feb-23 08:05 -2.5
2020-Feb-23 08:00 351 0 gusting 0 -2.5
2020-Feb-23 07:55 352 0 gusting 0 -2.6
2020-Feb-23 07:50 353 0 gusting 1 -2.7
2020-Feb-23 07:45 354 0 gusting 1 -2.5
2020-Feb-23 07:40 341 1 gusting 1 -2.3
2020-Feb-23 07:35 326 0 gusting 1 -1.4
2020-Feb-23 07:30 318 0 gusting 0 -1.2
2020-Feb-23 07:25 189 0 gusting 1 -1.7
2020-Feb-23 07:20 -1.8
2020-Feb-23 07:15 -1.7
2020-Feb-23 07:10 -1.6
2020-Feb-23 07:05 148 0 gusting 0 -1.6
2020-Feb-23 07:00 181 0 gusting 0 -1.6
2020-Feb-23 06:55 -1.4
2020-Feb-23 06:50 -1.2
2020-Feb-23 06:45 -1.0
2020-Feb-23 06:40 282 0 gusting 0 -0.7
2020-Feb-23 06:35 152 0 gusting 0 -0.5
2020-Feb-23 06:30 202 0 gusting 0 -0.4
2020-Feb-23 06:25 197 0 gusting 1 -0.3
2020-Feb-23 06:20 170 0 gusting 1 -0.2
2020-Feb-23 06:15 161 0 gusting 1 -0.2
2020-Feb-23 06:10 165 0 gusting 2 -0.2
2020-Feb-23 06:05 186 0 gusting 1 -0.0
2020-Feb-23 06:00 171 0 gusting 1 0.1
2020-Feb-23 05:55 175 0 gusting 1 -0.0
2020-Feb-23 05:50 188 0 gusting 1 0.1
2020-Feb-23 05:45 183 0 gusting 2 0.1
2020-Feb-23 05:40 193 0 gusting 1 0.2
2020-Feb-23 05:35 174 0 gusting 1 0.2
2020-Feb-23 05:30 184 0 gusting 1 0.2
2020-Feb-23 05:25 185 0 gusting 1 0.1
2020-Feb-23 05:20 163 0 gusting 1 0.1
2020-Feb-23 05:15 180 1 gusting 1 0.2
2020-Feb-23 05:10 189 0 gusting 1 0.1
2020-Feb-23 05:05 183 0 gusting 1 0.0
2020-Feb-23 05:00 208 0 gusting 1 0.1
2020-Feb-23 04:55 192 0 gusting 2 0.2
2020-Feb-23 04:50 205 0 gusting 0 0.2
2020-Feb-23 04:45 172 0 gusting 2 0.2
2020-Feb-23 04:40 198 0 gusting 1 0.1
2020-Feb-23 04:35 193 0 gusting 1 0.2
2020-Feb-23 04:30 201 0 gusting 1 0.4
2020-Feb-23 04:25 200 0 gusting 1 0.5
2020-Feb-23 04:20 198 0 gusting 1 0.3
2020-Feb-23 04:15 196 0 gusting 1 0.2
2020-Feb-23 04:10 196 0 gusting 1 0.0
2020-Feb-23 04:05 175 0 gusting 1 -0.0
2020-Feb-23 04:00 189 0 gusting 0 0.1
2020-Feb-23 03:55 199 0 gusting 0 0.2
2020-Feb-23 03:50 224 0 gusting 0 0.5
2020-Feb-23 03:45 211 0 gusting 0 0.9
2020-Feb-23 03:40 210 0 gusting 1 1.2
2020-Feb-23 03:35 197 1 gusting 3 1.1
2020-Feb-23 03:30 189 1 gusting 3 0.9
2020-Feb-23 03:25 196 0 gusting 1 1.0
2020-Feb-23 03:20 201 1 gusting 2 1.2
2020-Feb-23 03:15 192 1 gusting 1 1.3
2020-Feb-23 03:10 184 0 gusting 2 1.3
2020-Feb-23 03:05 191 0 gusting 1 1.5
2020-Feb-23 03:00 194 1 gusting 3 1.6
2020-Feb-23 02:55 178 0 gusting 1 1.3
2020-Feb-23 02:50 183 0 gusting 1 1.2
2020-Feb-23 02:45 183 0 gusting 0 1.3
2020-Feb-23 02:40 199 0 gusting 2 1.1
2020-Feb-23 02:35 187 0 gusting 1 1.2
2020-Feb-23 02:30 204 0 gusting 1 1.4
2020-Feb-23 02:25 223 0 gusting 1 1.4
2020-Feb-23 02:20 196 0 gusting 1 1.6
2020-Feb-23 02:15 194 1 gusting 1 1.4
2020-Feb-23 02:10 192 0 gusting 1 1.4
2020-Feb-23 02:05 194 0 gusting 1 1.4
2020-Feb-23 02:00 188 1 gusting 2 1.4
2020-Feb-23 01:55 193 1 gusting 2 0.8
2020-Feb-23 01:50 177 0 gusting 1 0.1
2020-Feb-23 01:45 147 0 gusting 0 0.1
2020-Feb-23 01:40 136 0 gusting 0 0.3
2020-Feb-23 01:35 073 0 gusting 0 0.5
2020-Feb-23 01:30 104 0 gusting 0 0.7
2020-Feb-23 01:25 123 0 gusting 1 0.6
2020-Feb-23 01:20 115 0 gusting 1 0.8
2020-Feb-23 01:15 103 0 gusting 1 0.6
2020-Feb-23 01:10 145 0 gusting 1 0.3
2020-Feb-23 01:05 149 0 gusting 1 0.3
2020-Feb-23 01:00 119 0 gusting 0 0.3
2020-Feb-23 00:55 127 0 gusting 0 0.3
2020-Feb-23 00:50 0.5
2020-Feb-23 00:45 113 0 gusting 0 0.8
2020-Feb-23 00:40 121 0 gusting 0 1.0
2020-Feb-23 00:35 1.1
2020-Feb-23 00:30 089 0 gusting 0 1.2
2020-Feb-23 00:25 1.4
2020-Feb-23 00:20 192 0 gusting 0 1.4
2020-Feb-23 00:15 1.6
2020-Feb-23 00:10 031 0 gusting 0 1.7
2020-Feb-23 00:05 066 0 gusting 0 1.9
2020-Feb-23 00:00 081 0 gusting 0 2.4
2020-Feb-22 23:55 124 0 gusting 1 2.8
2020-Feb-22 23:50 181 0 gusting 1 3.4
2020-Feb-22 23:45 177 0 gusting 0 3.9
2020-Feb-22 23:40 187 0 gusting 0 4.0
2020-Feb-22 23:35 181 0 gusting 0 4.0
2020-Feb-22 23:30 183 0 gusting 0 4.3
2020-Feb-22 23:25 185 0 gusting 1 4.5
2020-Feb-22 23:20 186 0 gusting 1 4.5
2020-Feb-22 23:15 188 0 gusting 0 4.7
2020-Feb-22 23:10 181 0 gusting 1 4.3
2020-Feb-22 23:05 155 0 gusting 0 4.2
2020-Feb-22 23:00 188 0 gusting 1 4.3
2020-Feb-22 22:55 191 0 gusting 1 4.5
2020-Feb-22 22:50 197 0 gusting 1 4.9
2020-Feb-22 22:45 241 1 gusting 2 5.1
2020-Feb-22 22:40 221 1 gusting 2 5.4
2020-Feb-22 22:35 231 1 gusting 2 6.0
2020-Feb-22 22:30 211 1 gusting 2 6.1
2020-Feb-22 22:25 238 1 gusting 2 6.7
2020-Feb-22 22:20 233 1 gusting 3 7.0
2020-Feb-22 22:15 235 2 gusting 5 7.3
2020-Feb-22 22:10 229 2 gusting 5 7.5
2020-Feb-22 22:05 230 3 gusting 7 7.6
2020-Feb-22 22:00 210 3 gusting 6 7.8
2020-Feb-22 21:55 218 2 gusting 6 8.1
2020-Feb-22 21:50 223 2 gusting 6 8.5
2020-Feb-22 21:45 244 3 gusting 7 8.8
2020-Feb-22 21:40 245 3 gusting 7 9.0
2020-Feb-22 21:35 249 3 gusting 7 9.0
2020-Feb-22 21:30 231 3 gusting 5 9.2
2020-Feb-22 21:25 224 2 gusting 5 9.3
2020-Feb-22 21:20 236 3 gusting 7 9.4
2020-Feb-22 21:15 217 3 gusting 6 9.5
2020-Feb-22 21:10 220 3 gusting 6 9.7
2020-Feb-22 21:05 235 3 gusting 8 9.8
2020-Feb-22 21:00 238 4 gusting 8 9.9
2020-Feb-22 20:55 239 3 gusting 6 10.3
2020-Feb-22 20:50 240 3 gusting 6 10.4
2020-Feb-22 20:45 244 3 gusting 8 10.8
2020-Feb-22 20:40 255 3 gusting 5 10.8
2020-Feb-22 20:35 264 3 gusting 6 10.6
2020-Feb-22 20:30 289 3 gusting 6 10.4
2020-Feb-22 20:25 289 3 gusting 7 10.4
2020-Feb-22 20:20 270 3 gusting 6 10.7
2020-Feb-22 20:15 287 3 gusting 6 10.2
2020-Feb-22 20:10 301 4 gusting 9 10.2
2020-Feb-22 20:05 278 4 gusting 8 10.3
2020-Feb-22 20:00 286 4 gusting 7 10.5
2020-Feb-22 19:55 291 3 gusting 7 10.6
2020-Feb-22 19:50 284 3 gusting 6 10.5
2020-Feb-22 19:45 284 3 gusting 8 10.2
2020-Feb-22 19:40 270 3 gusting 7 10.1
2020-Feb-22 19:35 259 4 gusting 8 9.8
2020-Feb-22 19:30 275 4 gusting 9 9.8
2020-Feb-22 19:25 275 4 gusting 9 9.7
2020-Feb-22 19:20 279 4 gusting 8 9.8
2020-Feb-22 19:15 256 4 gusting 7 10.2
2020-Feb-22 19:10 262 4 gusting 8 9.8
2020-Feb-22 19:05 272 4 gusting 8 9.6
2020-Feb-22 19:00 286 3 gusting 7 9.5
2020-Feb-22 18:55 254 5 gusting 9 9.7
2020-Feb-22 18:50 265 4 gusting 7 9.8
2020-Feb-22 18:45 271 4 gusting 8 9.9
2020-Feb-22 18:40 274 3 gusting 6 9.9
2020-Feb-22 18:35 275 2 gusting 6 9.8
2020-Feb-22 18:30 265 4 gusting 7 9.6
2020-Feb-22 18:25 269 3 gusting 6 9.3
2020-Feb-22 18:20 286 4 gusting 9 9.3
2020-Feb-22 18:15 268 4 gusting 7 9.4
2020-Feb-22 18:10 245 3 gusting 8 9.3
2020-Feb-22 18:05 258 4 gusting 9 9.2
2020-Feb-22 18:00 266 4 gusting 8 9.1
2020-Feb-22 17:55 277 4 gusting 8 9.0
2020-Feb-22 17:50 263 4 gusting 9 8.6
2020-Feb-22 17:45 257 4 gusting 8 8.8
2020-Feb-22 17:40 252 4 gusting 7 8.5
2020-Feb-22 17:35 258 4 gusting 8 8.3
2020-Feb-22 17:30 262 4 gusting 9 8.4
2020-Feb-22 17:25 261 4 gusting 8 8.3
2020-Feb-22 17:20 262 4 gusting 9 8.0
2020-Feb-22 17:15 276 4 gusting 8 8.2
2020-Feb-22 17:10 241 4 gusting 8 8.0
2020-Feb-22 17:05 273 4 gusting 8 8.1
2020-Feb-22 17:00 259 4 gusting 7 7.9